Regional Weather Roundup
Issued by NWS

Home | Current Version | Previous Version | Graphics & Text | Print | Product List | Glossary On
Versions: 1 2 3 4 5 6 7 8 9 10 11 12 13 14 15 16 17 18 19 20 21 22 23 24 25 26 27 28 29 30 31 32 33 34 35 36 37 38 39 40 41 42 43 44 45 46 47 48 49 50
527
ASUS45 KTFX 292310
RWRMT
MONTANA REGIONAL WEATHER ROUNDUP
NATIONAL WEATHER SERVICE GREAT FALLS MT
500 PM MDT SUN MAY 29 2016

NOTE: "FAIR" INDICATES FEW OR NO CLOUDS BELOW 12000 FEET WITH NO
SIGNIFICANT WEATHER AND/OR OBSTRUCTIONS TO VISIBILITY.

MTZ001>007-043-300000-
WEST OF THE DIVIDE

CITY           SKY/WX    TMP DP  RH WIND       PRES   REMARKS
KALISPELL      PTSUNNY   65  47  52 SE12      29.93F
MISSOULA       MOSUNNY   70  42  36 VRB7      29.95F
BUTTE          PTSUNNY   67  26  21 S10       30.01F
MULLAN PASS    MOSUNNY   52  34  50 VRB7G22   30.04F
ANACONDA         N/A     66  30  26 W9        30.00R
DEER LODGE       N/A     63  37  39 NW8G16    30.00F
EUREKA           N/A     70  34  26 SW13      29.90S
HAMILTON         N/A     72  34  25 NW3       29.94F
LIBBY            N/A     68  36  30 W7        29.91S
$$

MTZ008-052>055-300000-
SOUTHWEST MONTANA

CITY           SKY/WX    TMP DP  RH WIND       PRES   REMARKS
BOZEMAN        CLOUDY    72  36  26 NE6       29.97F
DILLON         MOSUNNY   69  25  19 SW10G20   29.99F
W YELLOWSTONE  CLOUDY    61  25  25 W10G18    30.10F
ENNIS          PTSUNNY   66  27  22 CALM      30.05F
$$

MTZ009-010-012-014-046-048-049-054-300000-
EAST SLOPES AND CENTRAL MONTANA

CITY           SKY/WX    TMP DP  RH WIND       PRES   REMARKS
CUT BANK         N/A     61  38  42 SW17G25   29.96R
GREAT FALLS    CLOUDY    70  34  26 SW17      29.94F
MALMSTROM AFB  MOSUNNY   69  38  31 S15G22    29.94F
HELENA         PTSUNNY   72  38  29 NE16      29.95F
CHOTEAU          N/A     64  37  36 SW15G21   29.97R
$$

MTZ011-013-016-021-045-047-050-051-300000-
NORTH CENTRAL MONTANA

CITY           SKY/WX    TMP DP  RH WIND       PRES   REMARKS
HAVRE          CLOUDY    71  39  31 W9        29.90F
LEWISTOWN      CLOUDY    69  34  27 VRB3      29.97F
N BAR RANCH      N/A     66  37  34 VRB3      30.01F
CHINOOK          N/A     72  36  26 SW13      29.90F
$$

MTZ017>020-022>027-061-062-300000-
NORTHEAST MONTANA

CITY           SKY/WX    TMP DP  RH WIND       PRES   REMARKS
GLASGOW        SUNNY     75  36  24 SW15G22   29.92F
JORDAN           N/A     76  38  25 NW8       29.93F
SIDNEY         SUNNY     78  38  23 W16G23    29.92F
WOLF POINT     SUNNY     78  37  22 W13       29.92F
PLENTYWOOD       N/A     72  36  26 W15       29.93F
POPLAR           N/A     75  37  25 W13       29.92F
$$

MTZ028>42-056>058-300000-
SOUTHCENTRAL AND SOUTHEAST MONTANA

CITY           SKY/WX    TMP DP  RH WIND       PRES   REMARKS
BAKER          LGT RAIN  68  43  40 VRB3G26   29.99S
BILLINGS       MOSUNNY   76  35  22 VRB5      29.94F
LIVINGSTON     CLOUDY    72  36  26 NW7       29.97F
MILES CITY     MOSUNNY   77  41  27 VRB5      29.94F
FORSYTH          N/A     81  43  26 SE3       29.93F
$$

REGIONAL REPORTS...DAKOTAS

CITY           SKY/WX    TMP DP  RH WIND       PRES   REMARKS
WILLISTON      SUNNY     78  33  19 W14       29.93F
MINOT          MOSUNNY   78  38  23 W8        29.93F
DICKINSON      SUNNY     77  32  19 W10       29.93F
BEACH            N/A     75  37  25 W10G16    29.98F
CROSBY           N/A     72  37  28 W13G23    29.94S
WATFORD CITY     N/A     75  36  23 W7        29.94F
BISMARCK       MOSUNNY   80  45  28 W6        29.94F
GRAND FORKS    MOSUNNY   73  49  42 NW8       29.90F
FARGO          SUNNY     79  43  27 NW13      29.92F
BUFFALO SD       N/A     76  45  33 S10       29.91F
RAPID CITY     SUNNY     72  53  51 E10       29.98F
$$

REGIONAL REPORTS...WYOMING/IDAHO/WASHINGTON

CITY           SKY/WX    TMP DP  RH WIND       PRES   REMARKS
GILLETTE       MOSUNNY   74  38  27 VRB5      30.00F
SHERIDAN       SUNNY     76  44  32 SE8G16    29.97F
BUFFALO WY     SUNNY     73  41  31 E6        30.01F
CODY           PTSUNNY   72  32  23 SW22G30   29.99S
YELLOWSTONE LA   N/A     59  21  23 W12G20    30.17F
IDAHO FALLS    CLOUDY    74  36  25 S13       30.01F
SALMON         MOSUNNY   72  32  23 N3        29.92F
BOISE          CLOUDY    78  30  17 N12       29.94F
SPOKANE        MOSUNNY   70  33  25 W18G29    29.95F
$$

REGIONAL REPORTS...ALBERTA

CITY           SKY/WX    TMP DP  RH WIND       PRES   REMARKS
EDMONTON       PTSUNNY   63  45  51 NE10      29.83F
CALGARY        PTSUNNY   64  32  29 E3        29.83F
LETHBRIDGE     PTSUNNY   66  36  32 W17G25    29.87S
MEDICINE HAT   MOSUNNY   72  34  25 W21G36    29.84F
WATERTON GATE    N/A     61  37  41 SW16G25     N/A
CARDSTON         N/A     63  36  36 W5          N/A
MILK RIVER       N/A     68  34  28 W13G18      N/A
$$

REGIONAL REPORTS...SASKATCHEWAN

CITY           SKY/WX    TMP DP  RH WIND       PRES   REMARKS
SWIFT CURRENT  MOSUNNY   68  39  34 W14G21    29.87F
REGINA         MOSUNNY   70  39  32 W10G21    29.88F
SASKATOON      MOSUNNY   68  45  42 N6        29.87S
CYPRESS HILLS    N/A     61  34  36 SW9G17      N/A
VAL MARIE        N/A     72  34  25 W15G23      N/A
ROCKGLEN         N/A     66  36  32 W10         N/A
ASSINIBOIA       N/A     66  46  48 E9          N/A
$$




USA.gov is the U.S. government's official web portal to all federal, state and local government web resources and services.